| time (UTC) | temp F | wind direction | speed knots | gust knots | rain 1hr in | rain 24hr in | rain mn in | humidity % | barometer mb |
| 20260502162003 | 55 | 327 | 1.7 | 6.1 | 0.00 | 0.00 | 0.00 | 53 | 1024.7 |
| 20260502161003 | 55 | 327 | 1.7 | 6.1 | 0.00 | 0.00 | 0.00 | 50 | 1024.7 |
| 20260502152003 | 52 | 0 | 0.0 | 2.6 | 0.00 | 0.00 | 0.00 | 49 | 1024.9 |
| 20260502151003 | 51 | 0 | 0.0 | 1.7 | 0.00 | 0.00 | 0.00 | 53 | 1025.0 |
| 20260502123003 | 35 | 0 | 0.0 | 0.0 | 0.00 | 0.00 | 0.00 | 79 | 1024.6 |
| 20260502122003 | 36 | 0 | 0.0 | 0.0 | 0.00 | 0.00 | 0.00 | 79 | 1024.6 |
| 20260502121003 | 36 | 0 | 0.0 | 0.0 | 0.00 | 0.00 | 0.00 | 77 | 1024.5 |
| 20260502115003 | 36 | 0 | 0.0 | 0.0 | 0.00 | 0.00 | 0.00 | 76 | 1024.4 |
| 20260502114003 | 37 | 0 | 0.0 | 0.0 | 0.00 | 0.00 | 0.00 | 75 | 1024.4 |
| 20260502113003 | 37 | 0 | 0.0 | 0.0 | 0.00 | 0.00 | 0.00 | 75 | 1024.4 |
| 20260502112003 | 38 | 0 | 0.0 | 0.0 | 0.00 | 0.00 | 0.00 | 73 | 1024.4 |
| 20260502111003 | 38 | 0 | 0.0 | 0.0 | 0.00 | 0.00 | 0.00 | 72 | 1024.4 |
| 20260502110003 | 38 | 0 | 0.0 | 0.0 | 0.00 | 0.00 | 0.00 | 71 | 1024.4 |
| 20260502105003 | 39 | 0 | 0.0 | 0.0 | 0.00 | 0.00 | 0.00 | 71 | 1024.4 |
| 20260502104003 | 39 | 0 | 0.0 | 0.0 | 0.00 | 0.00 | 0.00 | 70 | 1024.5 |
| 20260502103003 | 39 | 0 | 0.0 | 0.0 | 0.00 | 0.00 | 0.00 | 70 | 1024.4 |
| 20260502102003 | 40 | 0 | 0.0 | 2.6 | 0.00 | 0.00 | 0.00 | 70 | 1024.4 |
| 20260502101003 | 40 | 0 | 0.0 | 1.7 | 0.00 | 0.00 | 0.00 | 68 | 1024.4 |
| 20260502091003 | 40 | 0 | 0.0 | 0.0 | 0.00 | 0.00 | 0.00 | 72 | 1024.2 |
| 20260502071003 | 46 | 0 | 0.0 | 0.0 | 0.00 | 0.00 | 0.00 | 58 | 1024.2 |
| 20260502070003 | 46 | 0 | 0.0 | 0.9 | 0.00 | 0.00 | 0.00 | 54 | 1024.2 |
| 20260502065003 | 47 | 0 | 0.0 | 1.7 | 0.00 | 0.00 | 0.00 | 53 | 1024.2 |
| 20260502064003 | 48 | 0 | 0.0 | 0.9 | 0.00 | 0.00 | 0.00 | 49 | 1024.0 |
| 20260502063003 | 48 | 136 | 0.9 | 4.3 | 0.00 | 0.00 | 0.00 | 48 | 1023.9 |
| 20260502062003 | 48 | 139 | 0.9 | 4.3 | 0.00 | 0.00 | 0.00 | 48 | 1023.8 |
| 20260502061003 | 49 | 147 | 0.9 | 4.3 | 0.00 | 0.00 | 0.00 | 49 | 1023.7 |
| 20260502060003 | 49 | 144 | 1.7 | 6.1 | 0.00 | 0.00 | 0.00 | 49 | 1023.7 |
| 20260502055003 | 49 | 164 | 0.9 | 3.5 | 0.00 | 0.00 | 0.00 | 49 | 1023.5 |
| 20260502054003 | 49 | 149 | 0.9 | 5.2 | 0.00 | 0.00 | 0.00 | 50 | 1023.6 |
| 20260502053003 | 50 | 160 | 0.9 | 3.5 | 0.00 | 0.00 | 0.00 | 50 | 1023.5 |
| 20260502052003 | 50 | 140 | 0.9 | 3.5 | 0.00 | 0.00 | 0.00 | 48 | 1023.4 |
| 20260502051003 | 50 | 142 | 1.7 | 5.2 | 0.00 | 0.00 | 0.00 | 49 | 1023.4 |
| 20260502050003 | 50 | 141 | 2.6 | 5.2 | 0.00 | 0.00 | 0.00 | 51 | 1023.4 |
| 20260502045003 | 49 | 153 | 2.6 | 5.2 | 0.00 | 0.00 | 0.00 | 55 | 1023.5 |
| 20260502044003 | 49 | 150 | 2.6 | 6.1 | 0.00 | 0.00 | 0.00 | 56 | 1023.5 |
| 20260502043003 | 49 | 172 | 1.7 | 5.2 | 0.00 | 0.00 | 0.00 | 56 | 1023.5 |
| 20260502042003 | 50 | 165 | 0.9 | 6.1 | 0.00 | 0.00 | 0.00 | 55 | 1023.4 |
| 20260502041003 | 52 | 0 | 0.0 | 2.6 | 0.00 | 0.00 | 0.00 | 52 | 1023.3 |
| 20260502040003 | 52 | 0 | 0.0 | 1.7 | 0.00 | 0.00 | 0.00 | 51 | 1023.3 |
| 20260502035003 | 53 | 158 | 0.9 | 3.5 | 0.00 | 0.00 | 0.00 | 49 | 1023.2 |
| 20260502034003 | 53 | 258 | 0.9 | 3.5 | 0.00 | 0.00 | 0.00 | 48 | 1023.0 |
| 20260502033003 | 54 | 0 | 0.0 | 0.0 | 0.00 | 0.00 | 0.00 | 48 | 1023.0 |
| 20260502032003 | 54 | 0 | 0.0 | 0.0 | 0.00 | 0.00 | 0.00 | 46 | 1022.8 |
| 20260502031003 | 55 | 0 | 0.0 | 0.0 | 0.00 | 0.00 | 0.00 | 44 | 1022.6 |
| 20260502030003 | 56 | 0 | 0.0 | 0.9 | 0.00 | 0.00 | 0.00 | 43 | 1022.4 |
| 20260502025003 | 58 | 0 | 0.0 | 0.0 | 0.00 | 0.00 | 0.00 | 37 | 1022.3 |
| 20260502024003 | 59 | 0 | 0.0 | 0.0 | 0.00 | 0.00 | 0.00 | 35 | 1022.1 |
| 20260502023003 | 60 | 0 | 0.0 | 0.0 | 0.00 | 0.00 | 0.00 | 35 | 1022.1 |
| 20260502022003 | 61 | 0 | 0.0 | 0.0 | 0.00 | 0.00 | 0.00 | 35 | 1022.1 |
| 20260502021003 | 62 | 0 | 0.0 | 0.9 | 0.00 | 0.00 | 0.00 | 33 | 1022.0 |
| 20260502020003 | 64 | 311 | 0.9 | 3.5 | 0.00 | 0.00 | 0.00 | 31 | 1022.0 |
| 20260502015003 | 65 | 311 | 0.9 | 3.5 | 0.00 | 0.00 | 0.00 | 25 | 1021.9 |
| 20260502014003 | 66 | 304 | 0.9 | 3.5 | 0.00 | 0.00 | 0.00 | 26 | 1021.8 |
| 20260502013003 | 67 | 314 | 0.9 | 4.3 | 0.00 | 0.00 | 0.00 | 24 | 1021.9 |
| 20260502012003 | 67 | 324 | 1.7 | 6.1 | 0.00 | 0.00 | 0.00 | 23 | 1021.9 |
| 20260502011003 | 68 | 320 | 1.7 | 4.3 | 0.00 | 0.00 | 0.00 | 23 | 1021.9 |
| 20260502010003 | 67 | 326 | 1.7 | 6.1 | 0.00 | 0.00 | 0.00 | 23 | 1021.9 |
| 20260502005003 | 67 | 318 | 2.6 | 8.7 | 0.00 | 0.00 | 0.00 | 25 | 1021.9 |
| 20260502004003 | 67 | 305 | 1.7 | 5.2 | 0.00 | 0.00 | 0.00 | 26 | 1021.9 |
| 20260502003003 | 68 | 316 | 1.7 | 7.0 | 0.00 | 0.00 | 0.00 | 25 | 1022.0 |
| 20260502002003 | 68 | 318 | 2.6 | 7.0 | 0.00 | 0.00 | 0.00 | 25 | 1022.0 |
| 20260502001003 | 67 | 324 | 2.6 | 7.0 | 0.00 | 0.00 | 0.00 | 25 | 1022.1 |
| 20260502000003 | 67 | 311 | 3.5 | 7.0 | 0.00 | 0.00 | 0.00 | 25 | 1022.1 |
| 20260501235003 | 67 | 314 | 3.5 | 8.7 | 0.00 | 0.00 | 0.00 | 25 | 1022.2 |
| 20260501234003 | 68 | 322 | 2.6 | 7.8 | 0.00 | 0.00 | 0.00 | 26 | 1022.2 |
| 20260501233003 | 68 | 308 | 2.6 | 7.8 | 0.00 | 0.00 | 0.00 | 26 | 1022.3 |
| 20260501232003 | 68 | 326 | 1.7 | 7.0 | 0.00 | 0.00 | 0.00 | 26 | 1022.3 |
| 20260501231003 | 68 | 320 | 1.7 | 7.0 | 0.00 | 0.00 | 0.00 | 27 | 1022.4 |
| 20260501230003 | 67 | 329 | 2.6 | 9.6 | 0.00 | 0.00 | 0.00 | 27 | 1022.4 |